Weather History for Las Cruces, NM

Change the Weather History Date:

Wednesday, June 25, 2014

  Actual Average Record
Temperature  
Mean Temperature 82 °F -  
Max Temperature 97 °F 92 °F 105 °F (1998)
Min Temperature 68 °F 65 °F 59 °F (2003)
Cooling Degree Days 18    
Growing Degree Days 32 (Base 50)    
Moisture  
Dew Point 37 °F    
Average Humidity 20    
Maximum Humidity 33    
Minimum Humidity 10    
Precipitation  
Precipitation 0.00 in - - ()
Sea Level Pressure  
Sea Level Pressure 30.03 in    
Wind  
Wind Speed 8 mph (West)    
Max Wind Speed 20 mph    
Max Gust Speed 28 mph    
Visibility 10 miles    
Events      
Averages and records for this station are not official NWS values.
T = Trace of Precipitation, MM = Missing Value Source: NWS Daily Summary

Daily Weather History Graph

Daily Weather History Graph

Search for Another Location

Airport:

Trip Planner

Search our weather history database for the weather conditions in past years. The results will help you decide how hot, cold, wet, or windy it might be!

Date:

Astronomy

Jun. 25, 2014 Rise Set
Actual Time 6:02 AM MDT 8:18 PM MDT
Civil Twilight 5:33 AM MDT 8:46 PM MDT
Nautical Twilight 4:59 AM MDT 9:21 PM MDT
Astronomical Twilight 4:21 AM MDT 9:59 PM MDT
Moon 4:50 AM MDT (6/25) 6:57 PM MDT (6/25)
Length of Visible Light 15h 12m
Length of Day
14h 15m
Waning Crescent, 2% of the Moon is Illuminated
Jun 25
Waning Crescent
Jun 27
New
Jul 5
First Quarter
Jul 12
Full
Jul 18
Last Quarter

Hourly Weather History & Observations

Time (MDT) Temp. Dew Point Humidity Pressure Visibility Wind Dir Wind Speed Gust Speed Precip Events Conditions
12:15 AM 80.1 °F 44.6 °F 29% 30.02 in 10.0 mi WSW 8.1 mph - N/A   Clear
12:35 AM 79.3 °F 44.6 °F 29% 30.02 in 10.0 mi West 9.2 mph - N/A   Clear
12:55 AM 78.3 °F 44.4 °F 30% 30.02 in 10.0 mi West 9.2 mph - N/A   Clear
1:15 AM 77.7 °F 44.1 °F 30% 30.02 in 10.0 mi West 10.4 mph - N/A   Clear
1:35 AM 77.4 °F 44.1 °F 31% 30.01 in 10.0 mi West 11.5 mph - N/A   Clear
1:55 AM 77.0 °F 44.1 °F 31% 30.01 in 10.0 mi West 10.4 mph - N/A   Clear
2:15 AM 76.5 °F 43.9 °F 31% 30.01 in 10.0 mi West 10.4 mph - N/A   Clear
2:35 AM 75.2 °F 43.7 °F 32% 30.01 in 10.0 mi West 9.2 mph - N/A   Clear
2:55 AM 75.0 °F 43.9 °F 33% 30.02 in 10.0 mi West 6.9 mph - N/A   Clear
3:15 AM 75.2 °F 43.9 °F 33% 30.02 in 10.0 mi Calm Calm - N/A   Mostly Cloudy
3:35 AM 76.3 °F 43.9 °F 31% 30.03 in 10.0 mi Calm Calm - N/A   Mostly Cloudy
3:55 AM 77.2 °F 40.1 °F 26% 30.03 in 10.0 mi WNW 5.8 mph - N/A   Scattered Clouds
4:15 AM 73.0 °F 39.7 °F 30% 30.03 in 10.0 mi Calm Calm - N/A   Clear
4:35 AM 72.3 °F 39.4 °F 30% 30.03 in 10.0 mi Calm Calm - N/A   Clear
4:55 AM 70.0 °F 38.7 °F 32% 30.03 in 10.0 mi Calm Calm - N/A   Clear
5:15 AM 70.3 °F 37.6 °F 30% 30.03 in 10.0 mi West 3.5 mph - N/A   Clear
5:35 AM 68.0 °F 37.0 °F 32% 30.04 in 10.0 mi NW 5.8 mph - N/A   Clear
5:55 AM 69.6 °F 37.0 °F 30% 30.05 in 10.0 mi Calm Calm - N/A   Scattered Clouds
6:15 AM 70.2 °F 37.4 °F 30% 30.05 in 10.0 mi West 5.8 mph - N/A   Scattered Clouds
6:35 AM 68.9 °F 36.9 °F 31% 30.06 in 10.0 mi Calm Calm - N/A   Clear
6:55 AM 71.1 °F 36.3 °F 28% 30.07 in 10.0 mi WNW 4.6 mph - N/A   Scattered Clouds
7:15 AM 73.9 °F 36.7 °F 26% 30.07 in 10.0 mi Calm Calm - N/A   Scattered Clouds
7:35 AM 78.3 °F 39.4 °F 25% 30.08 in 10.0 mi North 3.5 mph - N/A   Clear
7:55 AM 80.1 °F 40.3 °F 24% 30.09 in 10.0 mi North 3.5 mph - N/A   Clear
8:15 AM 79.3 °F 39.7 °F 24% 30.09 in 10.0 mi Calm Calm - N/A   Scattered Clouds
8:35 AM 80.1 °F 43.5 °F 27% 30.10 in 10.0 mi ESE 3.5 mph - N/A   Scattered Clouds
8:55 AM 80.1 °F 45.9 °F 30% 30.11 in 10.0 mi Calm Calm - N/A   Scattered Clouds
9:15 AM 81.7 °F 43.7 °F 26% 30.11 in 10.0 mi Calm Calm - N/A   Scattered Clouds
9:35 AM 84.2 °F 38.1 °F 19% 30.10 in 10.0 mi Calm Calm - N/A   Clear
9:55 AM 86.4 °F 33.6 °F 15% 30.10 in 10.0 mi NE 4.6 mph - N/A   Clear
10:15 AM 87.3 °F 30.6 °F 13% 30.10 in 10.0 mi Calm Calm - N/A   Clear
10:35 AM 88.7 °F 33.6 °F 14% 30.09 in 10.0 mi SW 5.8 mph - N/A   Clear
10:55 AM 91.2 °F 35.6 °F 14% 30.10 in 10.0 mi WSW 10.4 mph 20.7 mph N/A   Clear
11:15 AM 92.3 °F 37.0 °F 14% 30.09 in 10.0 mi WSW 16.1 mph - N/A   Clear
11:35 AM 92.5 °F 34.9 °F 13% 30.09 in 10.0 mi WNW 11.5 mph 21.9 mph N/A   Clear
11:55 AM 92.7 °F 34.5 °F 13% 30.09 in 10.0 mi WSW 10.4 mph 20.7 mph N/A   Clear
12:15 PM 93.9 °F 35.6 °F 13% 30.08 in 10.0 mi SW 12.7 mph 20.7 mph N/A   Clear
12:35 PM 93.4 °F 34.2 °F 12% 30.08 in 10.0 mi SW 13.8 mph 20.7 mph N/A   Scattered Clouds
12:55 PM 93.7 °F 35.1 °F 13% 30.07 in 10.0 mi WSW 9.2 mph 26.5 mph N/A   Scattered Clouds
1:15 PM 93.7 °F 35.1 °F 13% 30.06 in 10.0 mi West 11.5 mph 26.5 mph N/A   Clear
1:35 PM 95.0 °F 32.4 °F 11% 30.05 in 10.0 mi West 15.0 mph 27.6 mph N/A   Clear
1:55 PM 96.4 °F 30.2 °F 10% 30.04 in 10.0 mi SSW 15.0 mph 21.9 mph N/A   Clear
2:15 PM 96.8 °F 30.6 °F 10% 30.04 in 10.0 mi West 10.4 mph 19.6 mph N/A   Clear
2:35 PM 95.0 °F 32.0 °F 11% 30.03 in 10.0 mi SW 5.8 mph 16.1 mph N/A   Clear
2:55 PM 96.8 °F 35.4 °F 12% 30.02 in 10.0 mi SW 12.7 mph 23.0 mph N/A   Clear
3:15 PM 97.0 °F 37.8 °F 13% 30.00 in 10.0 mi West 15.0 mph 24.2 mph N/A   Clear
3:35 PM 96.8 °F 38.1 °F 13% 30.00 in 10.0 mi West 18.4 mph 27.6 mph N/A   Scattered Clouds
3:55 PM 96.4 °F 36.7 °F 12% 29.99 in 10.0 mi West 11.5 mph 18.4 mph N/A   Clear
4:15 PM 97.9 °F 37.6 °F 12% 29.98 in 10.0 mi West 11.5 mph 25.3 mph N/A   Clear
4:35 PM 95.9 °F 37.4 °F 13% 29.97 in 10.0 mi WSW 16.1 mph 27.6 mph N/A   Clear
4:55 PM 96.6 °F 36.5 °F 12% 29.96 in 10.0 mi WSW 10.4 mph 24.2 mph N/A   Clear
5:15 PM 96.8 °F 34.7 °F 11% 29.96 in 10.0 mi WSW 15.0 mph 25.3 mph N/A   Clear
5:35 PM 96.6 °F 35.6 °F 12% 29.96 in 10.0 mi West 19.6 mph 27.6 mph N/A   Clear
6:15 PM 96.4 °F 34.7 °F 11% 29.95 in 10.0 mi NW 9.2 mph 19.6 mph N/A   Clear
6:35 PM 95.9 °F 32.7 °F 11% 29.95 in 10.0 mi West 19.6 mph 23.0 mph N/A   Clear
6:55 PM 95.4 °F 32.9 °F 11% 29.95 in 10.0 mi West 15.0 mph 20.7 mph N/A   Clear
7:15 PM 94.6 °F 35.1 °F 12% 29.95 in 10.0 mi West 13.8 mph 17.3 mph N/A   Clear
7:35 PM 93.7 °F 36.5 °F 13% 29.95 in 10.0 mi WSW 13.8 mph 19.6 mph N/A   Clear
7:55 PM 92.7 °F 35.4 °F 13% 29.95 in 10.0 mi West 12.7 mph - N/A   Clear
8:15 PM 91.6 °F 33.8 °F 13% 29.96 in 10.0 mi West 11.5 mph 19.6 mph N/A   Clear
8:35 PM 90.5 °F 33.4 °F 13% 29.96 in 10.0 mi West 11.5 mph - N/A   Clear
8:55 PM 89.1 °F 33.1 °F 14% 29.97 in 10.0 mi West 8.1 mph - N/A   Clear
9:15 PM 86.5 °F 32.7 °F 15% 29.97 in 10.0 mi WSW 6.9 mph - N/A   Clear
10:15 PM 81.0 °F 32.2 °F 17% 29.99 in 10.0 mi WSW 6.9 mph - N/A   Clear
10:35 PM 80.2 °F 32.0 °F 17% 29.99 in 10.0 mi West 8.1 mph - N/A   Clear
10:55 PM 79.3 °F 31.8 °F 18% 29.99 in 10.0 mi West 9.2 mph - N/A   Clear
11:15 PM 78.1 °F 31.1 °F 18% 30.00 in 10.0 mi WSW 6.9 mph - N/A   Clear
11:35 PM 78.1 °F 32.0 °F 19% 30.00 in 10.0 mi WSW 5.8 mph - N/A   Clear
11:55 PM 73.8 °F 31.5 °F 21% 30.01 in 10.0 mi East 9.2 mph - N/A   Clear